Simultaneous Nadir Overpasses (SNOs) Predictions

Prediction of SNOs between AQUA and METOP-B Satellite Orbit:

Table of predicted SNOs for the next 14.0 days since TLE Epoch: 11/15/2013
Index Date (AQUA) Time (AQUA) Lat,Lon (AQUA) SZA (AQUA ) Date (METOP-B) Time (METOP-B) Lat,Lon (METOP-B) SZA (METOP-B ) Distance(km) Time Diff (sec)
1 11/16/2013 08:43:41 -73.66,-136.36 87.62 11/16/2013 08:42:30 -73.64,-136.42 87.64 2.51 71
2 11/16/2013 09:33:10 73.73, 31.12 92.46 11/16/2013 09:33:08 73.73, 31.12 92.46 0.23 2
3 11/16/2013 10:22:37 -73.81,-161.41 87.45 11/16/2013 10:23:48 -73.83,-161.33 87.44 3.19 71
4 11/19/2013 04:17:58 -73.66, -69.94 86.94 11/19/2013 04:16:56 -73.65, -70.00 86.95 2.37 62
5 11/19/2013 05:07:27 73.74, 97.54 93.14 11/19/2013 05:07:34 73.73, 97.51 93.14 1.20 7
6 11/19/2013 05:56:59 -74.07, -95.57 86.51 11/19/2013 05:58:09 -74.08, -94.31 86.51 38.40 70
7 11/21/2013 23:52:14 -73.67, -3.52 86.30 11/21/2013 23:51:21 -73.70, -3.49 86.27 3.21 53
8 11/22/2013 00:41:43 73.75, 163.95 93.79 11/22/2013 00:41:59 73.77, 164.01 93.81 2.74 16
9 11/22/2013 01:31:22 -74.44, -30.00 85.50 11/22/2013 01:32:28 -74.42, -27.05 85.54 88.05 66
10 11/24/2013 19:26:28 -73.68, 62.89 85.71 11/24/2013 19:25:46 -73.69, 62.88 85.70 0.58 42
11 11/24/2013 20:15:57 73.77,-129.65 94.39 11/24/2013 20:16:24 73.75,-129.64 94.37 2.05 27
12 11/27/2013 15:00:42 -73.70, 129.30 85.16 11/27/2013 15:00:11 -73.72, 129.34 85.14 1.92 31
13 11/27/2013 15:50:11 73.79, -63.25 94.94 11/27/2013 15:50:49 73.77, -63.19 94.92 2.92 38




NCC Satellite Simultaneous Nadir Overpasses (SNOs) Prediction Service
